GFSCGP_250_spd_198.txt.gz
Wind_Speed
47 48 49 53 55 56 59 60 62 64 65 63 69 70 75 80 81 83 86 89 95 99 103 105 108 110 111 107 106 105 106 111 115 113 110 105 105 105 106 107 106 102 97 91
50 52 54 54 55 57 59 58 61 61 63 61 65 69 74 82 81 80 81 84 89 92 98 104 106 108 113 113 114 113 111 109 109 113 116 112 109 110 111 110 108 104 99 94
50 52 52 54 56 58 61 59 58 58 62 67 68 69 77 85 85 84 83 85 89 91 94 98 99 103 107 108 109 113 117 119 114 112 110 110 113 115 115 118 115 110 106 101
53 53 54 56 56 58 61 63 62 64 67 67 73 64 73 79 88 87 82 83 86 88 91 93 96 99 100 99 103 106 110 114 118 115 115 111 113 113 115 118 118 117 113 108
54 54 57 61 64 67 68 69 66 66 68 70 76 77 74 79 87 87 86 86 87 88 89 90 89 90 94 94 96 102 105 109 112 114 113 114 113 116 116 113 116 118 116 114
55 60 65 67 69 71 72 73 72 71 72 73 74 73 70 81 84 88 88 85 81 80 78 80 83 86 87 85 82 89 96 99 104 108 111 111 110 115 117 116 116 118 116 115
61 66 69 71 75 77 79 80 74 70 73 73 72 70 76 79 78 79 80 81 80 77 77 77 81 82 81 79 75 74 84 89 92 96 100 104 110 111 110 114 118 120 119 114
62 65 72 75 77 76 75 77 81 80 74 70 73 73 70 70 71 73 76 78 78 79 78 76 79 78 79 75 69 66 71 82 85 86 89 93 97 105 109 110 113 118 117 116
66 64 68 70 72 75 76 78 80 81 77 75 71 66 64 70 73 76 78 76 76 75 73 74 75 72 73 70 64 60 65 70 73 76 81 84 90 95 100 104 108 113 113 114
64 59 63 66 72 76 79 79 79 80 77 73 63 60 65 72 76 71 71 71 68 68 66 67 71 66 67 64 60 58 56 58 64 70 73 80 82 87 91 95 100 107 111 112
65 62 67 70 73 73 73 71 71 70 72 71 64 55 71 75 72 67 63 64 64 60 55 58 63 60 59 60 57 55 54 52 54 55 60 66 73 78 83 86 90 97 102 107
68 68 70 69 66 67 66 70 72 72 71 71 75 59 73 73 63 61 63 57 54 56 51 52 54 52 55 55 52 51 49 46 45 47 48 55 61 68 74 78 82 87 92 98
69 71 65 55 63 66 68 71 74 72 69 71 74 68 66 61 59 58 58 51 49 46 44 46 52 51 53 53 50 46 39 41 44 41 45 50 56 60 65 71 75 77 81 89
75 69 69 69 70 70 68 73 74 72 73 65 65 53 67 55 50 50 45 41 42 40 41 46 48 52 52 50 44 43 39 35 39 43 43 46 54 54 57 62 68 71 74 80
75 71 73 76 80 78 78 79 77 71 66 62 62 59 52 47 43 41 36 34 36 34 36 43 45 50 52 48 50 45 35 31 31 35 39 42 51 50 54 56 58 63 65 68
74 71 72 76 81 81 82 77 67 67 66 59 53 49 42 36 35 33 31 30 29 27 31 35 38 44 49 48 44 39 30 25 30 35 38 41 46 45 48 50 47 50 55 59
74 72 75 76 78 80 73 65 67 64 57 46 40 36 32 29 25 24 20 21 21 23 26 26 29 34 37 38 35 30 28 26 33 36 37 40 41 40 42 43 37 37 44 48
72 74 78 77 78 70 66 64 55 47 39 36 31 27 23 19 14 11 14 14 13 14 18 20 22 25 27 29 29 28 27 31 33 33 34 32 30 34 35 37 33 30 32 33
72 75 78 78 70 66 66 54 42 36 29 21 16 15 13 12 11 11 9 8 10 10 12 14 16 18 22 25 26 28 27 27 26 31 36 29 27 28 28 26 23 22 18 18
73 78 78 76 62 62 50 40 33 26 17 13 9 7 6 6 7 6 3 5 7 8 7 10 14 15 16 18 21 22 24 29 28 31 27 25 21 22 18 14 14 12 15 17
76 78 78 70 63 53 41 28 23 16 9 7 6 7 7 7 7 6 4 3 3 3 4 5 4 4 9 15 20 22 17 16 20 18 18 24 21 12 9 10 14 17 21 23
75 72 74 62 56 42 28 21 14 6 5 8 8 7 5 6 5 3 2 2 3 4 7 9 7 7 7 8 9 8 12 14 10 12 14 16 15 18 19 19 23 24 27 28
74 69 66 58 47 30 21 12 3 9 8 6 6 6 4 7 5 4 5 1 1 3 4 7 10 10 10 8 9 13 8 3 9 13 16 20 27 27 27 24 27 27 30 33
69 68 56 53 35 24 11 2 6 7 6 6 6 6 6 4 2 2 4 7 10 11 8 11 12 12 15 10 14 13 10 9 13 18 29 37 35 36 34 34 31 32 36 38
63 61 54 40 26 14 8 5 6 6 5 4 4 4 5 6 5 6 8 11 13 14 12 11 12 12 18 19 20 17 15 16 33 37 46 46 46 44 41 39 37 35 33 28
59 51 49 31 17 11 2 7 6 6 6 4 3 7 9 9 8 7 12 17 19 15 7 8 10 13 19 24 22 22 27 43 49 56 53 50 49 48 46 44 44 42 34 31

GFSCGP_250_spd_201.txt.gz
Wind_Speed
41 42 44 45 48 51 55 58 61 65 67 67 71 71 74 78 76 77 79 80 83 87 90 93 96 97 98 100 101 102 103 105 108 112 116 111 106 105 104 102 105 109 109 103
44 46 49 51 53 55 58 58 61 62 65 65 68 69 72 78 77 79 80 80 81 82 86 89 93 95 99 101 103 105 107 108 108 109 111 112 112 112 110 109 107 107 109 113
48 49 50 51 53 54 56 56 58 59 62 65 66 67 70 77 80 81 81 82 83 84 86 89 93 96 99 101 102 105 107 110 111 111 111 111 109 111 111 109 107 106 110 111
45 47 50 53 54 55 57 59 59 61 62 61 70 65 72 77 83 85 86 88 88 89 89 89 92 95 98 101 102 103 106 109 109 111 114 113 111 109 108 109 108 108 110 114
46 48 51 55 57 60 63 64 63 64 66 66 72 74 74 81 87 87 89 90 90 92 93 93 94 93 95 99 102 101 105 105 105 106 107 109 111 110 111 109 108 110 112 114
46 50 55 61 64 67 71 71 71 72 72 73 75 77 75 83 85 86 88 89 88 88 86 86 88 91 95 98 100 102 103 103 103 101 98 100 104 111 108 103 103 109 113 115
51 57 63 68 70 72 74 74 73 70 71 72 75 76 79 83 85 86 87 85 84 85 85 87 87 87 87 89 91 94 92 94 92 93 92 91 95 101 103 103 105 108 107 110
54 59 65 69 71 72 72 74 75 76 76 74 78 77 79 83 86 88 86 82 83 87 86 83 82 81 81 82 81 82 81 85 79 81 80 82 85 90 94 94 95 100 104 108
58 59 64 66 69 72 71 73 78 81 79 76 71 73 70 74 77 80 78 76 78 81 81 82 82 82 83 84 82 79 78 77 74 72 71 71 74 78 82 84 85 89 93 101
62 58 65 66 69 71 73 74 75 77 73 72 67 64 70 74 76 80 77 78 78 80 80 80 82 78 75 73 72 72 69 69 66 63 62 63 64 65 71 73 73 78 84 90
64 66 69 70 67 69 71 72 74 75 76 73 69 60 75 75 75 75 75 77 77 77 77 73 71 66 64 65 64 64 64 63 59 57 58 58 57 59 64 66 66 71 74 79
70 73 72 71 69 67 69 73 74 75 75 73 77 64 75 73 73 69 71 68 67 64 63 62 66 60 58 56 54 56 58 54 54 52 52 51 53 58 57 59 61 63 66 69
75 76 73 65 67 65 67 70 73 72 72 72 75 67 67 65 62 63 62 63 62 59 59 53 54 50 50 47 48 51 52 47 48 47 45 47 48 50 51 52 55 57 60 62
73 72 73 67 66 66 66 72 75 74 75 67 71 60 70 60 57 56 54 54 54 51 51 47 42 41 41 41 44 47 49 39 42 42 39 38 43 42 43 46 49 53 55 55
73 74 68 65 66 68 72 76 76 77 70 65 67 62 54 50 44 41 41 40 39 40 39 35 34 36 37 39 40 39 39 40 41 36 34 32 39 41 40 40 45 47 48 46
73 69 61 64 68 74 77 77 80 73 70 63 54 48 43 40 38 34 33 31 30 30 29 27 29 29 31 34 35 34 41 38 34 33 25 24 34 36 36 37 37 39 38 32
72 68 64 64 71 77 75 77 71 68 58 49 42 37 33 30 27 25 23 20 17 16 16 18 18 19 24 27 28 32 29 30 32 25 22 24 36 30 29 34 34 33 28 23
70 68 66 67 76 78 75 68 64 55 46 36 31 28 24 20 18 16 13 11 8 5 9 10 10 13 16 18 20 23 20 15 19 19 22 28 25 30 25 24 24 23 17 13
70 70 72 71 75 74 75 67 56 44 32 30 28 24 20 16 11 9 7 6 4 3 4 5 6 8 11 14 16 19 16 15 20 21 22 24 27 26 19 15 12 8 7 12
73 74 76 74 73 70 64 59 45 35 28 21 18 14 12 13 14 12 13 14 13 11 11 10 3 3 8 11 15 15 16 19 19 15 19 20 19 10 8 5 10 13 15 14
72 75 76 72 68 70 62 50 38 30 19 12 9 11 11 11 10 9 10 9 10 10 10 11 11 9 3 5 8 11 14 17 15 16 15 14 8 11 14 22 27 29 26 25
70 75 74 70 64 66 58 42 33 20 13 8 8 8 7 10 9 5 5 5 5 6 6 5 5 7 8 8 5 7 7 8 11 14 12 10 16 23 31 40 45 42 39 35
70 74 72 68 60 58 48 37 22 15 10 9 7 6 6 7 6 5 5 6 6 6 5 4 4 8 7 7 8 8 7 8 9 14 19 27 28 39 49 49 49 43 36 35
69 73 69 62 58 54 40 26 21 11 4 2 4 6 7 5 3 3 7 9 10 12 10 5 1 6 14 9 10 10 14 21 30 34 32 39 46 55 51 50 47 41 37 33
69 66 63 59 53 47 34 21 14 6 4 3 4 6 7 4 5 4 7 12 13 15 14 9 8 10 14 18 17 21 29 42 43 44 45 49 53 55 56 52 46 39 34 30
69 62 53 49 44 39 24 16 9 2 2 3 5 4 6 7 8 12 16 21 20 18 14 15 14 12 16 22 30 38 46 48 50 51 51 54 58 58 53 50 41 38 29 21

GFSCGP_250_spd_207.txt.gz
Wind_Speed
33 33 35 36 38 41 44 45 48 50 52 54 58 60 65 70 70 74 77 79 80 81 82 82 85 85 86 86 88 89 90 91 92 94 95 96 99 101 101 101 98 99 103 106
38 39 41 42 44 47 49 51 54 56 59 61 65 66 73 76 76 82 85 85 87 88 88 89 91 91 94 94 95 96 96 96 96 96 98 99 99 101 102 104 103 104 105 104
43 43 45 47 48 51 53 54 58 61 63 67 70 68 72 76 74 79 83 84 85 85 86 88 89 91 92 94 95 96 98 99 100 100 101 101 101 102 103 104 103 101 104 107
40 41 42 44 46 47 50 50 53 55 57 59 66 62 73 77 75 74 83 85 87 89 89 91 92 94 95 96 96 98 98 99 100 100 101 101 102 103 103 104 104 102 106 107
33 37 39 41 43 44 47 50 54 57 61 61 70 68 75 83 83 82 85 87 88 92 93 95 99 101 102 102 101 101 100 101 101 101 101 101 101 101 102 103 105 106 109 108
34 35 40 42 45 46 52 56 60 63 68 68 77 73 75 85 88 90 90 93 92 92 94 96 100 102 102 102 104 104 106 107 106 105 104 103 103 103 102 102 104 106 107 106
34 36 43 48 51 54 57 62 63 63 70 73 84 85 86 88 89 89 92 96 96 96 95 95 101 100 99 98 98 101 102 103 105 106 105 105 104 102 103 101 106 104 106 102
38 43 44 48 54 57 60 65 68 67 70 68 75 79 82 87 83 79 83 88 87 92 94 94 97 97 95 93 93 91 92 93 96 97 96 95 96 94 91 87 86 88 89 96
42 46 48 50 56 59 66 69 70 68 68 64 60 62 63 79 80 79 77 82 81 87 88 94 92 91 88 84 83 85 85 84 84 85 86 84 84 84 81 76 75 67 76 69
44 45 49 56 60 63 63 66 66 67 63 61 57 63 69 74 79 77 83 87 85 85 89 84 87 86 85 80 76 88 76 74 74 75 74 72 74 71 69 64 52 56 70 73
45 49 55 58 61 64 66 67 66 68 72 74 68 67 69 72 74 77 79 82 79 77 78 70 73 78 76 73 71 72 70 69 69 70 68 67 70 70 69 69 69 75 73 80
49 55 57 62 63 64 64 65 66 68 69 77 78 73 74 69 66 66 66 64 62 63 64 58 58 60 61 63 64 64 61 58 61 64 62 67 66 73 70 69 68 73 75 72
53 56 57 64 62 57 61 67 69 73 73 80 81 79 76 74 64 53 49 48 45 47 49 50 45 45 45 46 48 51 53 53 53 53 50 55 59 63 63 60 60 60 61 61
58 62 60 68 70 68 67 70 73 76 76 77 84 81 75 71 59 50 44 41 38 37 39 38 36 39 35 34 34 36 39 42 44 46 48 52 53 51 49 49 52 52 52 50
61 62 68 75 67 68 70 73 76 77 79 78 79 80 73 63 53 46 42 35 31 30 29 30 32 33 32 30 29 28 29 31 33 36 38 42 44 44 46 43 42 41 40 44
63 66 71 75 68 70 71 75 76 79 79 78 79 74 68 53 46 43 34 30 27 25 24 25 26 26 25 25 25 25 22 19 22 25 28 29 31 32 33 30 35 36 39 39
67 64 64 69 71 73 71 75 78 80 79 75 74 67 61 42 39 31 26 22 20 19 20 20 21 21 20 20 18 18 16 15 17 17 17 19 24 25 24 24 30 33 33 34
69 66 69 68 71 76 75 75 79 78 78 74 68 61 46 34 32 20 17 14 14 13 15 16 17 16 16 16 13 14 13 16 15 17 18 19 18 15 19 21 24 28 26 23
68 69 71 73 73 76 76 77 80 77 75 71 60 54 36 30 27 20 16 15 19 17 18 18 15 12 10 9 6 9 13 15 16 17 18 16 12 12 12 14 15 15 13 13
68 69 69 74 76 78 85 80 76 73 68 65 56 45 31 28 25 20 16 15 16 19 19 19 20 17 11 6 1 12 16 18 17 16 16 13 8 4 4 4 7 8 6 5
68 69 72 75 79 82 79 78 72 67 62 56 47 36 29 26 19 19 13 8 12 17 21 21 19 16 10 3 2 17 19 23 20 15 14 9 6 13 24 22 16 14 10 6
74 76 79 81 84 84 79 74 69 62 56 47 42 27 25 17 15 11 10 12 15 18 19 21 19 15 12 4 3 9 16 18 18 16 14 20 38 33 28 23 18 12 10 9
78 81 82 83 84 81 75 69 62 52 45 40 30 20 17 11 10 11 13 15 16 15 16 20 16 14 10 8 6 7 12 17 18 23 45 40 33 30 23 21 21 17 22 17
85 82 79 79 79 72 67 63 52 43 38 31 19 15 13 11 9 7 8 11 14 16 18 18 14 13 10 4 7 12 16 24 41 51 43 37 35 33 25 23 26 26 22 23
86 79 76 72 66 61 63 54 45 37 30 24 15 14 12 12 11 14 13 18 19 18 15 15 12 9 7 1 9 19 36 53 50 46 42 38 32 27 24 25 29 28 27 22
78 74 68 59 58 55 53 46 36 30 23 17 11 12 12 16 14 12 14 18 20 17 15 14 9 4 2 5 20 44 58 53 48 48 41 36 37 40 34 30 26 22 17 12

GFSCGP_250_spd_210.txt.gz
Wind_Speed
33 33 34 35 36 37 38 39 40 44 47 48 52 55 59 63 65 68 69 74 73 74 77 78 79 82 83 84 85 84 86 87 87 87 88 89 92 94 95 95 97 98 100 100
37 37 39 39 41 43 44 45 48 51 54 56 58 59 66 70 70 74 77 81 83 85 84 85 87 88 89 92 93 93 94 94 94 94 95 95 96 95 97 97 97 98 98 99
38 38 40 41 42 44 46 46 48 50 51 55 58 60 67 71 75 78 80 84 90 92 90 92 94 93 95 99 100 98 100 102 100 100 100 100 99 99 100 100 98 100 98 98
39 39 39 39 39 41 42 42 44 47 49 53 60 59 68 72 77 77 78 80 83 87 91 93 93 93 96 98 98 94 94 98 102 102 102 102 102 101 101 100 100 100 95 92
35 36 36 36 36 38 41 43 46 49 55 60 68 68 72 80 79 83 85 83 87 90 93 94 100 101 102 103 104 96 96 99 104 100 100 100 100 100 100 98 98 97 90 87
30 31 34 34 35 37 41 45 49 51 57 62 71 74 76 77 80 81 86 91 95 94 98 98 101 102 103 109 110 107 101 100 107 107 106 104 103 102 102 99 96 89 84 87
29 30 32 39 40 43 47 49 51 53 57 63 69 72 80 74 72 74 75 77 80 85 89 94 95 94 101 105 105 105 109 105 103 106 105 105 103 101 101 99 94 86 75 49
29 33 35 39 44 45 48 52 58 59 61 56 61 64 75 69 71 71 70 73 77 84 86 89 83 87 94 92 92 93 93 94 97 96 96 96 96 96 94 94 92 90 84 83
32 38 40 42 45 48 53 58 62 62 58 51 56 63 74 76 74 76 77 79 82 80 78 80 79 83 75 83 80 87 88 83 88 86 88 85 86 87 84 79 81 74 79 80
37 39 42 46 49 54 56 55 58 59 57 54 57 65 73 77 81 76 80 83 80 78 78 74 70 70 70 69 75 76 77 78 84 82 78 77 77 76 77 72 71 66 67 73
39 41 46 52 54 56 59 59 61 62 71 71 67 67 76 79 75 75 79 78 81 74 69 64 62 59 59 64 52 60 66 69 75 73 72 68 67 70 69 66 69 64 64 67
37 46 49 55 54 59 64 64 67 70 69 70 71 70 79 80 80 72 69 69 65 63 58 54 51 46 49 51 47 47 50 57 63 64 62 59 56 59 60 60 67 61 63 69
44 50 50 55 56 58 59 61 64 69 72 74 75 77 83 83 82 78 69 62 52 50 48 43 41 40 38 39 41 42 39 44 48 51 55 52 50 51 53 55 60 62 64 66
49 55 56 56 63 63 66 68 72 75 75 74 81 81 83 81 77 73 68 56 48 43 44 41 33 32 29 30 31 32 36 36 40 41 44 43 45 52 50 48 51 55 55 58
56 56 58 65 64 66 71 74 74 76 76 78 81 87 81 76 70 67 60 50 44 42 38 37 36 35 34 33 30 27 27 28 30 32 34 36 41 45 44 43 43 41 41 44
59 62 63 64 69 72 74 70 73 77 77 79 84 84 80 70 65 57 46 42 38 37 35 33 30 28 29 29 28 26 25 21 22 23 25 26 26 29 34 37 36 32 38 37
66 62 59 65 71 70 68 69 73 78 81 83 85 83 75 65 62 52 36 34 31 29 28 27 28 27 28 27 25 20 17 13 13 14 15 15 16 19 21 23 25 24 28 31
60 62 60 58 62 67 73 72 74 79 85 86 84 79 67 56 54 45 33 31 31 26 26 26 27 29 29 27 24 19 13 8 9 9 12 13 14 16 16 15 16 20 23 25
59 60 60 62 65 71 75 75 80 84 85 83 79 69 62 51 45 40 26 28 25 18 23 28 29 31 32 28 22 15 10 4 9 11 12 15 13 10 7 9 9 10 15 17
57 60 62 68 68 71 84 86 84 86 82 78 68 62 54 46 35 33 17 18 13 16 22 27 33 32 32 26 18 11 4 8 9 11 14 15 14 10 9 11 7 3 3 9
60 62 65 70 74 78 82 84 84 78 74 66 59 55 48 39 28 19 13 10 13 15 21 25 30 30 30 23 12 9 5 9 13 16 17 17 16 23 21 15 10 7 5 6
71 71 73 76 82 87 87 83 75 67 64 59 57 49 37 33 19 10 7 9 13 18 21 25 29 28 28 22 12 11 6 15 19 18 21 28 29 23 21 15 13 14 11 12
75 76 77 84 89 89 86 78 65 59 57 54 47 39 31 27 13 8 4 8 13 17 22 26 25 26 24 18 8 4 8 19 25 36 36 30 27 25 25 19 14 12 12 11
82 83 84 87 88 81 75 69 59 59 53 44 37 31 27 19 10 6 6 10 14 16 21 21 23 22 20 15 7 13 19 40 41 35 30 26 27 22 18 12 13 14 12 2
86 87 85 80 78 69 66 56 55 52 47 39 28 26 18 14 8 7 7 6 10 15 18 20 23 17 17 9 15 32 42 39 38 37 31 28 24 19 15 12 10 8 8 6
83 79 74 71 66 57 51 52 48 43 36 28 24 18 12 10 6 7 5 8 13 15 17 21 18 15 8 20 46 43 34 36 35 32 28 24 19 16 12 10 9 7 7 9

GFSCGP_250_spd_216.txt.gz
Wind_Speed
37 35 38 36 36 37 37 39 42 41 41 43 43 47 47 50 52 57 60 61 62 63 64 65 69 72 76 82 87 88 92 94 94 96 98 101 102 105 105 106 109 110 110 108
37 37 40 39 39 39 39 41 43 41 42 43 45 49 48 51 56 58 61 63 65 67 69 71 75 78 81 86 89 91 96 101 101 102 103 105 103 102 104 105 106 105 104 104
37 39 39 38 37 40 37 40 40 41 42 42 42 47 46 50 51 54 59 62 62 67 71 72 73 76 79 84 88 93 99 104 107 110 112 114 110 106 105 107 107 104 102 100
35 38 38 36 39 39 37 37 35 39 41 41 39 46 47 51 55 59 64 67 72 76 79 79 81 83 86 90 94 98 102 106 107 110 114 118 119 117 115 114 113 110 106 103
32 36 34 35 34 33 31 34 39 37 38 41 44 48 53 56 59 62 66 66 67 70 73 74 73 74 77 84 93 101 105 106 109 112 114 116 119 118 117 118 117 115 113 111
29 30 30 28 27 30 31 32 35 36 40 45 48 50 52 58 63 65 58 62 68 73 73 73 73 76 79 80 83 86 92 96 103 111 113 118 119 115 113 112 114 114 110 110
21 22 22 25 25 29 30 33 37 40 40 47 54 54 57 58 57 55 60 67 74 79 82 80 83 83 82 81 80 78 79 79 81 86 96 103 111 117 120 117 114 106 105 105
18 22 24 27 29 31 33 36 41 42 43 46 55 57 57 62 59 54 60 66 72 77 83 88 90 88 82 77 75 76 77 74 71 68 74 82 89 101 106 109 114 114 109 106
21 25 25 27 33 36 37 43 42 44 48 51 53 59 65 69 59 57 61 66 70 76 82 88 89 86 76 69 67 66 68 69 67 62 63 62 69 75 79 89 102 106 104 103
24 28 26 32 36 39 40 43 45 48 51 57 60 66 72 65 58 60 65 69 76 82 87 90 86 83 75 66 59 55 55 56 58 58 56 57 57 62 69 84 93 96 96 94
21 28 36 38 37 39 40 44 48 53 59 64 65 65 64 58 60 64 69 71 77 86 87 83 79 76 72 64 58 53 48 45 45 48 50 52 53 54 56 65 72 79 80 79
32 29 33 38 39 41 47 52 56 60 64 67 63 61 61 59 63 67 69 74 80 82 77 77 70 68 63 58 54 54 50 49 49 44 45 46 48 47 50 54 57 58 59 63
31 31 34 40 42 49 54 58 63 62 65 64 61 61 59 63 68 71 77 79 81 76 71 68 63 60 55 50 51 49 47 47 47 44 41 39 40 42 42 43 43 47 51 50
29 34 38 43 47 52 57 61 62 64 62 57 62 65 67 71 73 78 82 81 74 69 64 61 58 55 47 43 45 45 47 46 43 43 39 35 34 34 34 34 36 39 41 40
35 40 47 47 52 55 58 57 59 60 61 62 63 70 73 76 81 83 84 75 69 63 62 61 53 49 40 39 41 42 44 45 40 37 34 31 30 25 26 28 28 29 28 30
41 45 52 55 55 57 62 59 60 63 65 67 71 75 79 82 85 83 76 67 62 60 59 56 46 39 32 33 36 41 43 41 35 30 26 25 23 19 18 17 18 18 19 23
44 51 51 57 60 66 67 65 62 64 67 71 76 81 83 87 88 82 71 63 61 56 51 45 34 28 26 30 38 40 37 32 25 23 20 16 14 10 8 6 7 7 11 15
52 53 53 56 61 62 61 61 63 67 71 77 80 84 87 84 76 71 59 57 53 48 41 31 26 24 27 32 37 35 29 23 22 18 14 11 9 4 1 5 7 10 13 17
59 57 58 59 55 57 62 65 71 77 80 84 87 85 80 72 67 68 58 52 44 39 30 22 20 23 26 28 33 27 22 21 18 14 9 8 5 4 1 2 4 7 10 13
59 61 61 63 59 64 67 71 77 79 81 82 76 72 67 60 54 57 55 48 38 27 19 17 19 22 23 25 27 19 18 18 16 8 7 6 9 9 8 7 5 4 4 5
59 61 62 64 68 71 70 73 79 82 79 72 69 62 55 50 49 47 45 36 26 18 18 15 17 21 24 24 19 16 15 17 11 9 8 12 12 11 10 9 7 4 3 2
64 64 65 69 76 76 76 77 80 75 65 62 60 53 49 49 45 36 30 23 14 14 11 14 18 21 23 19 12 12 13 10 8 12 11 9 10 10 11 10 9 5 5 7
70 71 73 74 79 81 81 80 77 65 57 56 53 47 45 42 33 28 22 12 11 9 14 17 19 20 20 11 6 10 14 12 11 10 10 9 10 10 8 8 8 7 4 4
76 76 77 81 83 83 85 77 69 59 57 54 52 47 39 32 27 18 9 6 7 10 16 17 18 18 9 9 18 19 13 11 10 8 8 9 11 12 14 15 13 12 11 12
79 79 81 83 85 84 78 66 61 59 55 53 48 39 34 26 12 2 0 2 7 14 19 17 16 6 18 20 19 15 10 8 7 10 12 14 16 17 18 18 18 17 17 15
82 83 84 83 79 71 64 60 58 54 49 48 39 33 23 8 1 3 4 4 9 17 17 13 10 27 22 19 17 13 12 11 12 14 17 20 22 23 25 26 26 25 24 22